Domov               UVHVVR             MKGP            O straneh              
ZDRAVSTVENO VARSTVO RASTLIN
  MREŽA AGROMET. POSTAJ
 ► PROGNOSTIČNA OBVESTILA
AGROMETEOROLOŠKI PODATKI -
ARSO
OBVLADOVANJE TVEGANJ ZARADI
NEUGODNIH VREMENSKIH RAZMER
  ► NARAVNE NESREČE
  ► SUŠA/MOČA
  ► NAMAKANJE
  ► ŽLED (gozdarstvo)
KARTOGRAFSKI PRIKAZI
SPLETNE POVEZAVE
PROJEKTI IN PUBLIKACIJE

AGROMETEOROLOŠKA MREŽA: VREMENSKE POSTAJE IN FENOLOŠKA OPAZOVANJA

Pregled podatkov za lokacijo Selo, meteorološka postaja 37838

Pregled senzorjev na lokaciji

ID Ime Zadnja
vrednost
Datum
zadnje
spremembe
Tip
senzorja
4044 Omočenost lista (U) 0 U 26.3.2019 18:00 A730WET
4045 Padavine (mm) 0 mm 26.3.2019 17:59 Rain-O-Matic
4047 Relativna vlaga 2 m (% RH) 33,09 % RH 26.3.2019 18:00 50YA
4046 Temperatura 2 m (°C) 10,11 °C 26.3.2019 17:59 50YA

Pregled podatkov zadnjih 24 ur

Zap.
št.
Datum in čas Selo
Omočenost
lista
Padavine Relativna
vlaga
2
m
Temperatura
2
m
1 26.3.2019 17:30
2 26.3.2019 17:00 0 0 32,7 10,4
3 26.3.2019 16:30 0 0 32,7 10,5
4 26.3.2019 16:00 0 0 33,4 10,6
5 26.3.2019 15:30 0 0 32,6 10,6
6 26.3.2019 15:00 0 0 33,7 10,2
7 26.3.2019 14:30 0 0 33,7 10,4
8 26.3.2019 14:00 0 0 34,5 10,1
9 26.3.2019 13:30 0 0 33,5 10,6
10 26.3.2019 13:00 0 0 35,3 10,1
11 26.3.2019 12:30 0 0 35,8 10
12 26.3.2019 12:00 0 0 36,6 9,4
13 26.3.2019 11:30 0 0 38,8 9,1
14 26.3.2019 11:00 0 0 40 8,9
15 26.3.2019 10:30 0 0 42,4 7,9
16 26.3.2019 10:00 0 0 42,4 8,6
17 26.3.2019 09:30 0 0 44,1 7,8
18 26.3.2019 09:00 0 0 49,6 7,1
19 26.3.2019 08:30 0 0 56,1 6,6
20 26.3.2019 08:00 0 0 59,3 5,5
21 26.3.2019 07:30 0 0 62,4 4,3
22 26.3.2019 07:00 0 0 63,7 3,7
23 26.3.2019 06:30 0 0 65,8 3,1
24 26.3.2019 06:00 0 0 64,9 3,3
25 26.3.2019 05:30 0 0 63,1 3,7
26 26.3.2019 05:00 0 0 63,1 3,8
27 26.3.2019 04:30 0 0 62,9 3,8
28 26.3.2019 04:00 0 0 62,3 4
29 26.3.2019 03:30 0 0 60 4,3
30 26.3.2019 03:00 0 0 61 4,1
31 26.3.2019 02:30 0 0 60,4 4,2
32 26.3.2019 02:00 0 0 58,2 4,4
33 26.3.2019 01:30 0 0 54,4 4,9
34 26.3.2019 01:00 0 0 55 5
35 26.3.2019 00:30 0 0 53,4 5,3
36 26.3.2019 00:00 0 0 54,7 5,4
37 25.3.2019 23:30 0 0 62,1 5,2
38 25.3.2019 23:00 0 0 61,9 5,4
39 25.3.2019 22:30 0 0 60,3 5,7
40 25.3.2019 22:00 0 0 60,5 5,8
41 25.3.2019 21:30 0 0 61,1 6
42 25.3.2019 21:00 0 0 62,2 5,7
43 25.3.2019 20:30 10 0 63,2 5,9
44 25.3.2019 20:00 10 0 58,7 6,5
45 25.3.2019 19:30 10 0 57,9 6,8
46 25.3.2019 19:00 2 0 59,4 6,9
47 25.3.2019 18:30 0 0 52,6 7,6
48 25.3.2019 18:00 1 0 64,4 6,9
© 2011 Ministrstvo za kmetijstvo, gozdarstvo in prehrano. Vse pravice pridržane.